GFSFLT2_con_sbcape_045.txt.gz
CAPE
190 388 458 353 239 402 675 746 801 803 804 713 657 670 781 950 885 650 451 320 189 106 53 0 0 0 0 0 3 0 0 0
12 40 78 162 164 187 505 629 613 516 452 330 259 329 530 618 571 427 331 251 178 83 0 0 0 0 0 0 0 0 0 0
0 0 24 92 89 306 613 681 369 262 222 182 39 15 37 120 281 324 319 228 145 56 0 0 0 0 0 0 0 0 0 0
4 2 5 3 38 275 330 253 67 104 68 15 16 40 60 102 197 260 245 190 94 27 0 0 0 0 0 0 0 0 0 0
21 4 4 9 12 32 122 39 80 29 29 32 90 87 57 26 40 66 78 52 2 0 0 0 0 0 0 0 0 0 0 0
0 0 1 0 10 19 18 34 50 42 81 78 94 37 27 49 39 7 0 0 0 0 0 0 0 0 0 0 0 0 0 0
1 0 0 0 0 0 14 66 60 117 117 123 135 65 43 68 64 2 0 0 0 0 0 0 0 0 0 0 0 0 0 0
0 0 0 0 0 0 0 2 12 97 146 168 213 200 126 93 55 13 0 0 0 0 0 0 0 0 0 0 0 0 0 0
3 1 0 0 0 0 0 0 0 0 5 31 117 190 227 125 129 60 11 0 0 0 0 0 0 0 0 0 0 0 0 0
3 2 0 0 0 0 0 0 0 0 0 111 110 116 203 197 48 21 1 0 0 0 0 0 0 0 0 0 0 0 0 0
2 0 0 0 0 0 0 0 0 0 0 2 144 87 278 148 105 14 0 0 0 0 0 0 0 0 0 0 0 0 0 0
0 0 0 0 0 0 0 0 0 0 0 0 145 152 176 213 99 19 0 0 0 0 0 0 0 0 0 0 0 0 0 0
0 0 0 0 0 0 0 0 0 12 0 98 0 0 134 175 73 1 0 0 0 0 0 0 0 0 0 0 0 0 0 0
0 0 0 0 0 0 0 0 0 0 4 1 2 13 101 76 11 0 0 0 0 0 0 0 0 0 0 0 0 0 0 0
0 0 0 0 0 0 0 0 0 0 0 35 16 180 139 64 5 0 0 0 0 0 0 0 0 0 0 0 0 0 0 0
0 0 0 0 0 0 0 0 0 0 0 78 164 177 96 39 8 0 0 0 0 0 0 0 0 0 0 0 0 0 0 0
0 0 0 0 0 0 0 0 0 0 0 71 81 108 82 4 0 0 0 0 0 0 0 0 0 0 0 0 0 0 0 0
0 0 0 0 0 1 22 8 0 4 29 59 65 63 5 0 0 0 0 0 0 0 0 0 0 0 0 0 0 0 0 0
0 0 0 0 0 12 19 37 14 44 86 75 27 4 0 0 0 0 0 0 0 0 0 0 0 0 0 0 0 0 0 0
0 0 0 0 7 9 49 65 53 21 42 44 40 0 0 0 0 0 0 0 0 0 0 0 0 0 0 0 0 0 0 0

GFSFLT2_con_sbcape_048.txt.gz
CAPE
419 144 367 20 58 143 627 733 930 975 1131 1189 1162 1077 985 768 603 418 250 120 53 0 0 0 18 0 0 0 0 0 0 0
24 68 97 8 8 40 299 597 576 494 563 578 669 812 793 623 392 318 189 127 63 0 0 0 0 0 0 0 0 0 0 0
15 4 4 22 13 79 153 422 365 263 213 113 92 128 189 77 170 212 184 85 65 0 0 0 0 0 0 0 0 0 0 0
7 1 1 3 16 33 172 284 140 41 3 0 0 3 36 86 126 143 107 77 64 12 0 0 0 0 0 0 0 0 0 0
1 5 1 0 0 1 66 57 17 0 0 5 9 2 22 28 19 25 38 60 23 1 0 0 0 0 0 0 0 0 0 0
3 0 3 3 0 0 29 11 0 0 0 5 1 0 2 4 0 0 0 0 0 0 0 0 0 0 0 0 0 0 0 0
2 1 8 5 0 0 6 0 0 1 8 0 0 0 2 3 0 0 0 0 0 0 0 0 0 0 0 0 0 0 0 0
0 1 2 0 0 0 0 0 0 10 23 4 0 3 8 3 0 0 0 0 0 0 0 0 0 0 0 0 0 0 0 0
1 0 0 0 0 0 0 0 0 26 43 38 15 15 23 15 12 0 0 0 0 0 0 0 0 0 0 0 0 0 0 0
6 1 0 0 0 0 0 0 0 0 0 26 56 86 97 59 19 15 1 0 0 0 0 0 0 0 0 0 0 0 0 0
2 5 0 0 0 0 0 0 0 0 0 0 42 50 131 109 25 10 0 0 0 0 0 0 0 0 0 0 0 0 0 0
1 0 0 0 0 0 0 0 0 0 0 0 0 48 64 48 40 12 0 0 0 0 0 0 0 0 0 0 0 0 0 0
0 0 0 0 0 0 0 0 0 0 0 0 3 14 69 71 7 0 0 0 0 0 0 0 0 0 0 0 0 0 0 0
0 0 0 0 0 0 0 0 0 0 0 0 0 0 8 63 29 1 0 0 0 0 0 0 0 0 0 0 0 0 0 0
0 0 0 0 0 0 0 0 0 0 0 0 0 0 0 16 12 0 0 0 0 0 0 0 0 0 0 0 0 0 0 0
0 0 0 0 0 0 0 0 0 0 0 0 0 1 11 13 2 0 0 0 0 0 0 0 0 0 0 0 0 0 0 0
0 0 0 0 0 0 0 0 0 0 0 0 1 9 20 27 0 0 0 0 0 0 0 0 0 0 0 0 0 0 0 0
0 0 0 0 0 0 0 0 0 0 0 0 0 41 40 15 0 0 0 0 0 0 0 0 0 0 0 0 0 0 0 0
0 0 0 0 0 0 0 0 0 0 0 0 0 12 1 0 0 0 0 0 0 0 0 0 0 0 0 0 0 0 0 0
0 0 0 0 0 0 0 0 14 1 0 0 0 0 0 0 0 0 0 0 0 0 0 0 0 0 0 0 0 0 0 0

GFSFLT2_con_sbcape_051.txt.gz
CAPE
136 125 15 83 77 148 208 864 799 740 891 881 731 580 422 360 178 30 0 0 0 0 0 0 3 0 0 0 0 0 0 0
256 3 2 1 12 16 209 656 687 708 938 991 630 505 410 214 28 0 0 0 0 0 0 13 1 4 0 0 0 0 0 0
171 4 2 2 8 25 85 629 636 649 768 720 356 162 51 0 6 0 0 0 0 0 0 4 10 0 0 0 0 0 0 0
45 4 3 1 0 0 0 4 347 370 395 133 33 3 0 0 0 0 0 0 0 0 0 0 0 0 0 0 0 0 0 0
3 1 8 7 4 0 0 7 97 55 65 65 4 0 0 0 0 0 0 0 0 0 0 0 0 0 0 0 0 0 0 0
2 1 0 0 1 0 0 28 13 16 47 7 1 0 0 0 0 0 0 0 0 0 0 0 0 0 0 0 0 0 0 0
6 3 4 0 0 2 2 15 0 11 28 0 0 0 0 0 0 0 0 0 0 0 0 0 0 0 0 0 0 0 0 0
2 11 6 0 0 0 22 0 1 0 0 0 0 0 0 0 0 0 0 0 0 0 0 0 0 0 0 0 0 0 0 0
0 6 16 4 2 5 0 0 0 0 0 0 0 0 0 0 0 0 0 0 0 0 0 0 0 0 0 0 0 0 0 0
1 1 0 0 0 0 0 0 0 26 0 1 1 1 0 0 0 0 0 0 0 0 0 0 0 0 0 0 0 0 0 0
1 2 0 0 0 0 0 0 0 7 2 12 24 33 27 21 10 4 0 0 0 0 0 0 0 0 0 0 0 0 0 0
4 2 0 0 0 0 0 0 0 0 0 17 38 47 82 41 20 4 0 0 0 0 0 0 0 0 0 0 0 0 0 0
4 2 0 0 0 0 0 0 0 0 0 0 0 9 57 58 36 2 0 0 0 0 0 0 0 0 0 0 0 0 0 0
0 1 0 0 0 1 0 0 0 0 0 0 0 4 9 55 57 33 0 0 0 0 0 0 0 0 0 0 0 0 0 0
0 0 0 0 0 0 0 0 0 0 0 0 0 0 2 11 56 10 0 0 0 0 0 0 0 0 0 0 0 0 0 0
0 0 0 0 0 0 0 0 0 0 0 0 0 0 1 0 0 2 0 0 0 0 0 0 0 0 0 0 0 0 0 0
0 0 0 0 0 0 0 0 0 0 0 0 0 0 0 0 0 0 0 0 0 0 0 0 0 0 0 0 0 0 0 0
0 0 0 0 0 0 0 0 0 0 0 0 0 0 0 0 0 0 0 0 0 0 0 0 0 0 0 0 0 0 0 0
0 0 0 0 0 0 0 0 0 0 0 0 0 0 0 0 0 0 0 0 0 0 0 0 0 0 0 0 0 0 0 0
0 0 0 0 0 0 0 0 0 0 0 0 0 0 0 0 0 0 0 0 0 0 0 0 0 0 0 0 0 0 0 0

GFSFLT2_con_sbcape_054.txt.gz
CAPE
75 194 294 290 158 27 314 654 792 785 693 681 528 457 290 250 101 8 1 52 231 87 0 0 0 0 0 0 0 0 0 0
32 2 6 1 2 1 33 452 609 600 655 649 465 409 285 86 0 0 0 0 14 55 0 0 0 0 0 0 0 0 0 0
1 2 1 2 0 1 58 162 213 427 629 480 308 182 65 0 0 0 0 0 0 0 4 0 0 0 0 0 0 0 0 0
1 0 1 0 2 12 19 13 153 298 428 303 192 90 1 0 0 0 0 0 0 4 28 18 0 0 0 0 0 0 0 0
6 2 1 0 2 0 0 0 50 224 268 240 117 60 65 0 0 0 0 0 0 0 0 0 0 0 0 0 0 0 0 0
7 3 4 1 0 0 0 0 1 27 152 217 132 54 24 0 0 0 0 0 0 0 0 0 0 0 0 0 0 0 0 0
5 6 5 0 0 0 0 0 0 36 61 147 123 39 9 0 0 0 0 0 0 0 0 0 0 0 0 0 0 0 0 0
2 1 2 0 0 0 0 0 0 17 59 40 44 8 0 0 0 0 0 0 0 0 0 0 0 0 0 0 0 0 0 0
5 4 0 0 0 0 0 0 0 4 33 7 2 0 0 0 0 0 0 0 0 0 0 0 0 0 0 0 0 0 0 0
0 7 2 0 0 0 4 6 1 6 16 0 0 0 0 0 0 0 0 0 0 0 0 0 0 0 0 0 0 0 0 0
0 1 4 8 3 0 0 0 5 7 0 0 7 4 0 0 0 0 0 0 0 0 0 0 0 0 0 0 0 0 0 0
1 2 1 1 0 0 0 0 0 0 0 8 23 30 15 14 2 0 0 0 0 0 0 0 0 0 0 0 0 0 0 0
1 2 3 0 0 0 0 0 0 0 1 28 50 64 73 49 37 17 0 0 0 0 0 0 0 0 0 0 0 0 0 0
2 2 1 0 0 0 0 0 0 0 0 6 10 24 68 76 39 33 0 0 0 0 0 0 0 0 0 0 0 0 0 0
2 0 0 0 0 0 0 0 0 0 0 0 0 1 1 39 34 15 0 0 0 0 0 0 0 0 0 0 0 0 0 0
0 0 0 0 0 0 0 0 0 0 0 0 0 0 0 1 20 13 0 0 0 0 0 0 0 0 0 0 0 0 0 0
0 0 0 0 0 0 0 0 0 0 0 0 0 0 0 0 0 0 0 0 0 0 0 0 0 0 0 0 0 0 0 0
0 0 0 0 0 0 0 0 0 0 0 0 0 0 0 0 0 0 0 0 0 0 0 0 0 0 0 0 0 0 0 0
0 0 0 0 0 0 0 0 0 0 0 0 0 0 0 0 0 0 0 0 0 0 0 0 0 0 0 0 0 0 0 0
0 0 0 0 0 0 0 0 0 0 0 0 0 0 0 0 0 0 0 0 0 0 0 0 0 0 0 0 0 0 0 0

GFSFLT2_con_sbcape_057.txt.gz
CAPE
327 256 817 642 761 1145 1134 991 989 826 539 456 457 343 410 414 175 208 334 307 294 77 0 0 0 0 0 0 0 0 0 2
444 202 7 0 166 114 386 582 669 676 462 329 212 254 244 157 93 246 516 423 230 35 0 0 0 0 0 0 0 0 0 2
89 83 2 4 17 2 98 342 309 557 487 283 147 222 61 0 2 136 290 201 78 50 0 0 0 0 0 0 0 0 0 5
6 35 35 11 15 2 15 26 159 267 469 405 175 79 0 0 1 21 65 115 105 64 12 1 0 0 0 0 0 0 0 6
4 4 2 2 1 2 4 0 34 108 402 228 111 34 21 4 0 0 29 58 70 36 3 0 0 0 0 0 0 0 1 3
11 6 4 4 1 2 0 13 34 90 355 185 87 27 0 0 0 0 0 0 9 32 0 0 0 0 0 0 0 0 0 4
5 7 7 7 2 5 0 16 38 28 269 175 51 12 3 0 0 0 0 0 0 0 0 0 0 0 0 0 0 0 0 2
4 8 7 1 0 0 7 3 1 59 149 127 66 26 29 0 0 0 0 0 0 0 0 0 0 0 0 0 0 0 0 1
6 8 6 0 0 0 9 0 0 39 146 138 80 85 49 24 0 0 0 0 0 0 0 0 0 0 0 0 0 0 0 0
5 5 2 0 0 0 0 0 0 5 69 103 48 32 69 66 2 2 0 0 0 0 0 0 0 0 0 0 0 0 0 0
6 3 3 9 0 0 12 10 0 0 16 46 26 5 29 45 22 24 6 3 0 0 0 0 0 0 0 0 0 0 0 0
1 3 2 8 4 5 19 26 14 2 2 30 38 18 39 65 45 35 11 26 0 0 0 0 0 0 0 0 0 0 0 0
2 3 2 6 6 15 15 5 2 31 29 37 31 32 52 59 92 52 25 23 30 9 0 0 0 0 0 0 0 0 0 0
5 6 4 4 5 13 12 0 0 28 63 61 56 69 72 132 107 108 74 70 41 14 0 0 0 0 0 0 0 0 0 0
5 7 3 6 12 6 1 1 0 0 0 28 62 119 165 135 148 168 135 87 100 42 0 0 0 0 0 0 0 0 0 0
21 7 3 3 1 2 0 1 0 0 0 0 2 34 58 132 111 83 81 51 71 29 0 0 0 0 0 0 0 0 0 0
14 6 2 0 2 5 4 0 0 0 0 0 0 7 21 23 35 72 121 103 119 34 1 0 0 0 0 0 0 0 0 0
11 9 1 0 0 0 0 0 0 0 0 0 0 0 0 5 0 5 60 174 166 149 101 11 0 0 0 0 0 0 0 0
7 6 4 0 0 0 0 0 0 0 0 0 0 0 0 0 13 15 66 64 38 93 84 52 26 9 0 0 0 0 0 0
3 3 2 1 0 0 0 0 0 0 0 0 0 0 0 2 0 6 20 18 15 32 88 66 17 4 0 0 0 0 1 0

GFSFLT2_con_sbcape_060.txt.gz
CAPE
823 595 300 513 738 1197 893 1232 1190 1072 1073 1084 1008 817 704 594 551 612 488 176 114 47 5 0 0 0 0 0 0 7 0 1
727 605 360 229 110 364 588 683 894 851 964 892 612 587 521 260 226 410 405 191 65 72 0 0 0 0 0 0 0 0 2 1
831 428 314 171 146 171 639 792 665 616 861 640 463 513 268 96 83 299 326 89 54 72 0 0 0 0 0 0 0 0 7 4
396 149 201 97 60 19 91 314 408 524 589 747 423 533 233 8 187 285 181 96 98 59 0 0 0 0 0 0 0 3 11 9
166 196 72 119 97 60 7 35 62 100 167 421 473 372 130 87 285 305 220 47 11 0 0 0 0 0 0 0 0 1 13 7
21 151 28 68 87 10 27 25 83 82 65 166 282 133 151 137 168 159 125 62 53 6 1 8 0 0 0 0 0 0 8 9
7 11 21 8 1 0 1 3 44 74 42 154 252 191 139 53 82 106 125 171 155 51 34 21 0 0 0 0 0 0 3 6
8 9 15 11 8 7 7 10 19 63 60 223 247 175 133 54 40 1 11 90 122 40 22 19 0 0 0 0 0 0 1 5
8 10 9 15 12 9 17 8 34 34 67 230 211 156 145 90 27 20 5 17 13 8 8 9 3 1 0 0 0 0 0 0
13 8 8 17 13 10 12 3 17 84 118 181 155 136 117 89 40 29 8 0 0 5 3 9 3 0 0 0 0 0 0 0
9 9 5 6 2 1 9 0 1 53 101 140 135 101 106 82 50 97 50 0 0 0 0 0 0 0 0 0 0 0 0 0
13 9 7 8 1 6 30 0 1 23 43 171 121 90 108 76 58 118 84 28 22 10 0 0 0 0 0 0 0 0 0 0
3 6 3 9 8 16 35 22 0 11 25 69 131 108 142 138 119 132 108 99 94 76 32 17 0 0 0 0 0 0 0 0
3 4 8 5 12 0 6 48 45 13 7 40 108 150 132 134 150 119 106 147 156 130 94 71 29 0 2 13 6 0 0 0
26 35 9 4 2 14 27 41 1 18 18 14 56 153 198 118 139 174 167 153 196 207 169 160 133 38 11 130 151 105 106 0
22 34 35 17 11 12 22 3 8 0 18 42 87 124 162 157 131 192 251 236 203 269 268 242 266 235 19 1 74 68 109 57
11 21 16 10 15 12 8 2 0 0 6 45 98 79 114 146 167 231 286 285 261 293 244 217 245 264 196 147 11 0 0 0
8 7 14 12 11 12 12 11 0 0 5 5 8 36 83 106 142 246 279 208 119 54 156 296 306 238 210 190 102 13 0 0
1 6 6 15 12 14 17 20 7 0 0 0 0 41 37 41 77 197 135 89 70 50 181 382 414 312 235 178 127 59 55 0
0 2 5 16 23 13 16 28 18 0 0 0 0 0 16 1 0 84 89 49 75 198 162 141 186 235 272 320 254 203 110 0

GFSFLT2_con_sbcape_063.txt.gz
CAPE
1575 1624 484 198 68 5 324 1045 1138 1236 1250 1191 1092 854 713 773 672 356 190 131 117 51 5 0 0 0 0 0 0 15 5 4
1175 922 373 373 286 176 13 24 829 1033 1096 991 835 817 957 847 453 305 254 165 100 30 2 0 0 0 0 0 0 0 4 1
1070 468 305 157 158 42 85 129 250 697 939 683 632 582 702 545 270 245 161 70 47 7 0 0 0 0 0 0 0 7 9 3
783 568 445 262 152 121 40 35 276 666 1112 897 427 746 813 316 307 180 99 35 0 0 0 0 0 0 0 0 7 19 17 6
569 496 541 258 98 131 169 32 208 851 687 693 474 751 509 382 585 219 109 0 0 0 0 0 0 0 0 5 6 21 17 6
238 193 169 139 206 28 36 29 17 164 242 190 162 303 251 294 335 180 12 0 0 0 0 16 0 0 3 0 11 25 18 4
86 168 111 122 138 115 97 28 6 6 36 57 91 167 282 251 331 266 68 107 32 0 18 3 1 1 1 4 11 28 17 5
43 8 38 39 45 61 99 39 36 23 5 31 44 169 203 261 298 278 206 209 132 40 50 12 2 1 0 2 5 10 21 13
3 14 4 15 4 3 3 4 6 15 15 49 52 162 238 309 334 397 309 264 241 147 39 17 2 0 0 0 1 6 10 24
9 5 2 28 13 11 8 6 9 23 43 52 14 170 206 271 237 232 194 239 160 82 20 14 7 0 0 0 0 1 2 6
15 7 6 19 20 19 26 8 2 1 26 57 95 195 180 217 180 220 218 139 169 117 104 69 32 2 0 0 0 0 0 0
20 12 8 3 15 15 35 19 11 15 29 84 148 108 140 162 167 207 90 73 55 101 108 47 24 0 0 0 0 0 0 0
17 12 9 2 15 22 26 20 19 38 26 57 140 68 144 183 192 261 264 128 97 213 78 54 0 0 0 0 0 0 0 0
17 7 6 4 2 4 15 16 4 1 16 58 107 137 208 258 270 266 269 247 288 237 240 81 24 6 0 0 0 0 0 0
11 14 6 6 0 3 29 19 13 7 20 25 50 84 172 224 309 280 255 340 297 327 363 294 155 60 51 90 85 54 89 0
35 30 13 4 7 7 15 14 17 7 1 17 35 25 155 154 138 153 295 250 270 327 302 293 309 212 99 40 213 204 206 98
7 22 24 13 19 6 10 7 24 35 15 29 11 2 75 75 112 93 158 331 279 394 390 383 351 260 325 221 122 170 249 165
10 9 19 26 18 7 9 1 19 18 37 30 13 24 44 125 115 101 96 180 232 287 312 394 342 327 315 358 304 172 105 71
8 5 7 18 18 18 13 10 9 11 11 2 0 1 30 112 132 157 170 170 130 183 323 359 400 336 442 422 283 282 233 138
16 0 4 9 21 14 16 12 25 14 7 0 0 0 21 70 164 148 156 115 81 170 187 183 197 295 380 425 336 224 291 259

GFSFLT2_con_sbcape_066.txt.gz
CAPE
1721 1866 1130 241 228 122 10 3 76 828 1264 1226 1088 775 644 684 619 461 378 228 127 39 0 0 0 0 0 0 0 17 0 0
1108 1231 624 343 240 50 21 1 17 105 847 765 602 627 798 609 350 318 293 184 79 4 0 0 0 0 0 0 0 11 0 0
1134 928 512 434 174 110 35 9 0 15 663 463 412 521 557 306 143 193 197 67 53 16 0 0 0 0 0 0 6 0 0 0
1147 625 312 132 106 118 141 20 2 8 367 322 367 485 398 277 153 111 78 7 4 10 0 0 0 0 0 0 0 10 0 0
697 389 331 198 178 216 108 0 12 195 304 259 405 425 249 199 49 19 0 0 0 0 0 0 0 0 0 0 14 5 0 0
337 250 215 164 111 135 48 27 2 151 201 196 275 231 126 161 0 0 0 0 0 0 0 0 0 0 0 1 16 1 0 0
146 61 40 37 85 69 34 20 17 48 127 93 124 117 126 96 0 0 0 0 0 0 0 0 0 0 1 0 22 4 0 0
49 55 9 18 41 41 29 0 3 3 0 22 27 58 132 129 21 0 2 0 0 0 0 0 0 0 0 0 32 6 0 0
3 14 11 5 29 23 20 7 1 0 0 12 17 30 115 114 105 29 20 0 0 0 16 0 1 0 0 5 10 29 2 0
0 2 6 7 10 4 4 9 2 0 0 4 4 13 70 98 89 110 96 32 87 19 8 0 2 0 0 0 0 6 15 0
8 9 6 3 0 5 2 1 3 2 1 0 0 2 23 74 54 106 134 85 115 30 20 3 3 1 0 0 2 2 5 2
0 9 8 5 5 6 7 2 12 5 6 0 0 0 40 69 49 82 56 8 97 53 63 67 10 5 0 0 8 1 0 0
9 10 2 0 1 10 4 2 2 1 0 0 0 10 35 40 56 71 54 53 30 45 77 22 15 7 14 5 0 0 0 0
11 6 0 0 0 2 9 2 1 0 7 1 1 7 9 16 37 85 113 105 71 62 18 7 1 2 0 0 0 0 0 0
7 10 0 0 3 1 8 3 4 3 1 9 1 1 4 6 89 93 88 177 140 118 148 42 36 8 1 0 0 0 0 0
1 5 2 0 0 5 3 6 3 0 4 0 0 4 18 15 80 83 98 148 176 165 161 166 126 20 5 0 29 114 51 0
0 1 8 1 3 2 3 2 2 0 1 0 0 0 22 42 97 132 190 119 146 123 123 151 172 106 54 86 62 66 80 48
5 2 5 10 2 4 0 0 1 1 0 0 0 0 0 22 61 71 72 110 114 89 57 61 132 100 99 133 156 68 82 57
2 6 11 13 11 1 5 0 0 0 0 0 0 0 0 0 25 43 26 33 105 88 57 57 60 73 80 71 111 122 110 80
20 0 4 7 9 6 0 0 0 0 0 0 0 0 0 0 0 14 25 28 41 60 23 15 14 19 52 84 89 93 102 105

GFSFLT2_con_sbcape_069.txt.gz
CAPE
1184 951 611 363 351 208 68 88 4 158 587 479 761 898 866 867 730 592 520 321 161 72 24 3 0 0 0 0 0 0 0 0
856 610 161 33 10 10 39 117 168 0 28 330 509 679 636 657 557 490 329 183 68 54 3 0 0 0 0 0 0 0 0 0
560 556 210 54 13 3 38 100 140 25 9 3 335 421 339 312 253 285 181 63 53 38 0 0 0 0 0 0 0 0 0 0
517 302 50 26 35 7 0 0 22 2 0 20 147 240 99 154 158 139 75 31 15 0 0 0 0 0 0 0 0 0 0 0
383 121 17 0 2 0 1 1 0 0 0 0 191 132 73 58 25 18 1 3 0 0 0 0 0 0 0 0 0 0 0 0
162 65 37 0 7 0 0 0 1 0 0 0 190 97 46 4 1 0 0 0 0 0 0 0 0 0 0 0 0 0 0 0
30 3 14 0 0 0 0 0 3 2 22 57 111 75 8 0 0 0 0 0 0 0 0 0 0 0 0 0 0 0 0 0
0 4 1 0 0 0 1 1 0 40 36 46 40 60 0 0 0 0 0 0 0 0 0 0 0 0 0 0 0 0 0 0
0 0 0 0 4 0 0 1 8 13 13 4 28 35 0 0 0 0 0 0 0 0 0 0 0 0 0 0 0 0 0 0
0 0 0 0 0 0 1 0 1 3 8 0 0 25 7 0 0 0 0 0 0 0 0 0 0 0 0 0 0 0 0 0
0 0 1 0 0 0 0 0 0 0 0 0 0 0 20 14 2 0 0 0 0 0 0 0 0 0 0 0 0 0 0 0
0 5 4 0 1 3 2 7 0 0 0 0 0 0 0 8 41 29 44 7 0 0 0 0 0 0 0 0 0 0 0 0
1 4 0 2 2 3 3 0 2 1 0 0 0 0 0 9 19 26 12 58 5 0 3 1 0 0 0 0 0 0 0 0
0 0 0 0 0 1 0 2 8 3 1 0 0 0 0 0 16 25 1 27 25 0 0 0 0 0 0 0 0 0 0 0
0 0 0 0 0 0 1 0 1 0 0 0 0 0 0 0 5 4 0 1 0 0 0 0 0 0 0 0 0 0 0 0
0 0 0 0 0 2 1 1 0 0 0 0 0 0 0 0 0 0 0 15 12 20 17 1 1 0 0 1 6 9 0 0
0 0 0 0 2 0 1 0 0 0 0 0 0 0 0 0 1 0 2 20 38 55 66 47 25 0 0 5 0 2 8 0
0 0 1 0 0 1 0 0 0 0 0 0 0 0 0 0 0 31 44 26 70 58 61 57 52 44 9 19 9 4 0 8
0 0 0 0 0 0 0 0 0 0 0 0 0 0 0 0 1 9 32 35 33 50 31 33 28 35 35 58 57 55 32 17
0 0 0 2 1 0 0 0 0 0 0 0 0 0 0 0 0 13 11 9 12 36 21 20 36 41 36 21 23 24 50 52

GFSFLT2_con_sbcape_072.txt.gz
CAPE
790 867 692 605 1356 1043 821 790 288 353 311 643 343 677 767 1098 1149 1046 729 577 507 278 94 21 11 0 0 0 0 0 0 0
699 445 87 21 59 200 209 465 174 139 155 9 71 280 502 799 871 727 534 412 304 181 53 18 3 0 0 0 0 0 0 0
360 243 71 0 0 64 169 253 205 205 97 5 29 145 319 508 368 410 354 185 120 77 19 6 0 0 0 0 0 0 0 0
220 122 31 1 0 7 2 56 36 3 0 1 0 0 208 227 260 225 172 88 64 37 1 0 0 0 0 0 0 0 0 0
206 21 0 0 0 0 0 0 0 0 0 0 0 0 116 164 113 43 41 65 22 0 0 0 0 0 0 0 0 0 0 0
158 4 0 0 0 1 1 0 0 0 0 0 4 26 103 54 22 0 4 0 0 0 0 0 0 0 0 0 0 0 0 0
131 0 0 0 1 1 0 1 1 0 0 0 36 69 25 1 1 0 0 0 0 0 0 0 0 0 0 0 0 0 0 0
0 3 0 0 0 0 1 0 2 1 1 0 7 22 0 0 0 0 0 0 0 0 0 0 0 0 0 0 0 0 0 0
0 1 0 0 0 0 1 0 12 8 0 0 46 1 0 0 0 0 0 0 0 0 0 0 0 0 0 0 0 0 0 0
0 0 0 0 0 1 1 6 4 8 6 30 3 0 0 0 0 0 0 0 0 0 0 0 0 0 0 0 0 0 0 0
0 0 0 0 1 1 0 0 8 4 3 7 4 0 0 0 0 0 0 0 0 0 0 0 0 0 0 0 0 0 0 0
0 0 0 0 0 1 2 0 0 0 3 12 24 4 0 0 0 0 0 0 0 0 0 0 0 0 0 0 0 0 0 0
0 0 0 0 2 1 3 2 1 1 0 0 0 1 0 0 0 0 0 0 0 0 0 0 0 0 0 0 0 0 0 0
0 0 0 1 0 2 0 0 1 0 0 0 0 0 0 0 0 5 14 0 0 0 0 0 0 0 0 0 0 0 0 0
1 0 1 0 0 0 0 0 1 1 1 1 1 0 0 10 1 14 21 33 5 0 0 0 0 0 0 0 0 0 0 0
0 0 0 0 0 0 0 2 3 1 0 0 0 0 0 0 9 6 7 41 17 0 0 0 0 0 0 0 0 0 0 0
0 0 0 0 0 0 0 2 0 2 0 0 0 0 0 0 0 1 0 18 1 0 11 0 0 0 0 0 0 0 0 0
0 0 0 0 0 0 0 0 0 1 0 0 0 0 0 0 0 0 0 1 1 0 0 0 0 0 0 0 0 0 0 0
0 0 1 0 0 0 0 0 0 0 0 0 0 0 0 0 0 0 0 0 3 1 0 3 14 30 20 2 16 0 0 0
0 0 0 0 1 0 0 0 0 0 0 0 0 0 0 0 0 0 0 0 1 22 7 5 32 40 57 48 51 40 24 22

GFSFLT2_con_sbcape_078.txt.gz
CAPE
1040 1189 1453 1682 1697 1583 1234 1176 1281 1378 1088 630 445 275 546 760 1005 1309 1221 1037 981 787 531 294 174 59 8 0 0 0 0 0
617 1086 1352 1425 1507 1454 693 736 659 163 85 83 6 3 114 318 539 687 775 841 776 555 307 218 90 8 0 0 0 0 0 0
274 361 505 566 681 848 669 482 283 155 91 34 22 5 144 142 301 316 600 369 492 170 152 133 22 0 0 0 0 0 0 0
215 34 1 1 186 428 412 364 130 32 1 0 0 11 19 64 96 218 220 190 152 67 120 29 1 0 0 0 0 0 0 0
56 74 0 0 36 102 242 78 4 5 4 0 0 11 49 84 74 118 119 93 0 0 0 0 0 0 0 0 0 0 0 0
12 34 33 0 1 9 3 43 3 12 20 10 4 42 72 55 84 60 62 12 0 0 0 0 0 0 0 0 0 0 0 0
7 1 26 0 0 1 1 3 1 1 1 0 0 7 44 92 77 23 28 0 0 0 0 0 0 0 0 0 0 0 0 0
32 3 0 0 0 0 0 1 1 1 0 1 0 0 0 48 49 19 0 0 0 0 0 0 0 0 0 0 0 0 0 0
96 47 0 0 0 1 0 0 0 0 0 1 0 0 1 86 59 15 0 0 0 0 0 0 0 0 0 0 0 0 0 0
31 15 0 1 1 1 2 1 1 1 1 1 1 1 101 154 75 12 0 0 0 0 0 0 0 0 0 0 0 0 0 0
0 0 0 1 1 0 0 1 3 6 1 2 1 1 7 92 20 0 0 0 0 0 0 0 0 0 0 0 0 0 0 0
0 1 0 0 0 0 2 5 9 7 16 1 3 1 24 9 1 0 0 0 0 0 0 0 0 0 0 0 0 0 0 0
0 1 1 0 0 1 4 2 2 9 19 16 3 8 27 0 0 0 0 0 0 0 0 0 0 0 0 0 0 0 0 0
0 0 0 0 0 0 0 1 0 2 1 4 2 1 0 1 0 0 0 0 0 0 0 0 0 0 0 0 0 0 0 0
0 0 0 0 0 0 0 0 1 1 1 9 3 2 1 0 0 0 0 0 0 0 0 0 0 0 0 0 0 0 0 0
0 0 0 0 0 0 0 0 1 0 0 1 3 1 1 0 0 0 0 0 0 0 0 0 0 0 0 0 0 0 2 0
0 0 0 0 0 0 0 0 0 0 1 1 1 0 0 0 0 0 0 0 0 6 0 0 0 0 0 0 0 0 0 0
0 0 0 0 0 0 0 0 0 0 0 3 1 0 2 0 0 0 0 3 15 23 5 0 0 0 1 4 4 0 0 0
0 0 0 0 1 0 0 0 0 0 0 0 1 1 0 3 1 3 0 0 0 6 18 10 3 8 6 5 2 2 4 4
0 1 0 1 1 1 0 0 0 0 0 0 5 1 1 0 3 0 1 0 0 0 0 6 5 2 0 0 0 0 0 0

GFSFLT2_con_sbcape_081.txt.gz
CAPE
1081 1511 1812 1537 1398 1637 1561 1332 1411 1384 1574 1578 781 141 379 483 341 624 1025 1137 997 1007 799 624 508 231 72 4 0 16 94 61
1659 1492 1589 2157 2165 1411 1260 1178 899 770 623 257 142 62 71 132 292 438 610 1147 871 854 611 450 232 63 0 0 0 0 29 9
1655 1302 1628 1966 1792 1644 1071 893 469 395 454 91 77 142 89 96 213 267 301 573 508 446 399 186 64 4 0 0 0 0 0 0
1179 873 1178 1176 893 1152 1502 1210 886 181 193 103 107 104 161 68 75 144 214 266 238 248 183 37 38 67 1 0 0 0 0 0
1030 835 622 752 829 751 578 579 474 25 7 11 54 83 74 14 78 165 201 191 285 294 144 150 132 74 2 0 0 0 0 2
746 669 566 581 642 273 283 204 215 20 2 9 65 107 115 182 248 194 92 32 142 320 224 93 22 1 0 0 0 0 0 0
599 508 582 510 381 194 200 232 108 75 7 2 99 79 208 210 218 223 47 3 46 204 80 16 0 0 0 0 0 0 0 2
504 411 453 439 345 177 105 119 132 23 13 12 8 51 237 261 252 259 122 0 18 126 58 1 0 0 0 0 0 0 0 0
377 386 562 246 83 139 32 3 2 3 5 13 2 11 59 158 225 206 156 1 0 24 6 0 0 0 0 0 0 0 0 0
461 500 350 156 55 5 3 3 1 2 2 2 3 9 61 184 171 141 52 1 0 3 0 0 1 0 0 1 0 0 0 12
462 420 266 10 6 5 3 6 6 2 4 4 2 2 22 98 120 106 29 0 0 0 0 1 4 5 0 0 0 1 5 9
281 223 165 4 4 4 3 9 14 13 7 2 3 8 8 93 32 1 1 1 1 0 0 4 17 12 0 0 4 4 9 11
94 109 1 2 2 4 7 7 17 23 24 26 9 6 24 4 2 0 0 0 0 0 0 0 4 16 3 6 11 6 5 3
41 43 4 2 2 2 2 11 17 21 28 31 44 2 12 21 0 0 1 0 5 0 0 0 0 1 2 5 8 6 6 5
30 7 4 2 4 11 3 9 16 15 8 5 2 1 6 2 0 0 0 2 1 0 0 0 0 2 0 18 9 33 7 10
15 1 3 2 13 8 3 4 14 14 15 11 7 4 2 1 0 0 0 0 0 0 0 0 0 0 2 0 53 27 82 32
1 1 3 4 5 2 5 9 12 8 3 4 7 4 6 3 2 0 0 0 0 0 0 0 0 18 11 11 3 5 52 76
3 2 2 1 4 3 2 26 11 3 7 2 1 3 4 3 1 0 0 0 0 0 0 0 0 12 9 23 28 40 21 61
1 0 1 3 1 1 3 17 11 1 1 5 3 2 4 1 1 0 0 0 0 0 0 1 13 37 66 46 59 62 60 69
4 32 1 4 3 0 1 6 13 6 10 12 14 16 8 1 1 0 0 0 0 0 0 18 39 33 57 106 80 52 33 27

GFSFLT2_con_sbcape_084.txt.gz
CAPE
2166 2145 1839 1272 1245 1606 1411 1571 1639 1469 1844 1603 1149 964 827 806 688 723 577 703 836 1126 1111 902 756 482 206 68 142 316 501 396
2012 1948 2199 1972 1666 1390 1413 1328 1326 1091 1394 769 469 662 652 532 447 438 238 670 843 950 700 634 387 201 42 0 11 36 325 383
2638 1953 2142 2386 2325 1944 1409 1299 983 846 701 389 461 1049 947 358 254 289 416 521 775 779 481 344 108 28 17 0 2 244 188 123
2504 2135 2287 2215 2018 2238 2155 2224 1978 1686 1409 929 1105 1082 709 415 197 255 340 406 536 364 243 114 138 463 214 16 210 120 107 54
2181 1937 2096 2517 1916 1908 2057 1831 1699 1727 1461 1047 1006 979 504 193 167 269 694 278 247 245 227 568 401 356 266 257 119 189 74 52
1903 1754 1877 2121 1661 1665 1529 1080 1051 1276 1315 1223 618 718 659 398 107 137 253 148 140 179 746 527 411 290 230 210 94 63 37 40
1804 1894 1896 1474 1196 1159 934 808 852 896 1104 912 596 454 467 203 139 332 415 201 165 204 573 417 317 214 192 145 77 24 20 27
1911 1754 1782 1782 1883 1050 760 909 669 610 787 666 332 159 415 242 305 458 250 84 114 128 298 288 263 210 213 123 25 10 11 11
1954 1745 1613 1636 1537 1454 1075 703 800 692 450 444 199 335 520 414 495 441 195 184 77 104 271 325 177 172 161 90 21 11 8 6
1888 1395 1497 1475 1387 1079 877 513 585 578 404 460 173 11 67 143 269 395 236 115 152 99 301 180 170 162 96 79 21 6 6 4
1840 1435 1504 1587 1055 623 610 267 211 140 185 239 117 80 29 112 468 460 195 82 201 40 197 191 171 143 99 62 23 19 10 18
1759 1514 1591 1201 242 228 302 294 126 6 6 6 6 6 40 222 184 201 71 65 18 29 141 193 185 138 59 45 60 28 18 22
1678 1373 1436 796 334 372 171 310 153 45 41 11 15 16 7 48 72 68 8 6 3 4 165 175 145 144 87 72 49 9 37 20
1567 1250 1135 787 526 300 140 50 86 83 64 247 207 109 143 67 31 15 2 3 1 0 125 149 152 134 84 56 32 32 17 27
1209 1022 1094 508 461 213 159 91 24 37 109 232 121 75 39 35 39 2 2 1 0 0 110 157 150 151 149 60 25 27 42 53
970 965 1000 377 299 193 112 33 15 80 66 23 86 8 18 1 8 1 2 1 2 1 35 137 126 133 134 97 47 26 62 69
912 600 655 298 143 247 73 58 45 100 40 28 6 6 5 3 1 1 1 2 2 1 51 174 169 159 77 117 129 123 100 75
649 284 182 187 226 261 81 70 57 43 41 8 9 8 10 5 1 1 2 1 2 2 77 128 100 153 101 162 117 112 100 115
126 120 73 120 466 163 27 54 41 18 28 5 4 6 5 9 6 4 2 2 1 0 7 34 68 138 139 170 48 75 99 111
16 35 74 49 279 57 7 14 24 19 24 22 8 11 4 2 1 4 5 4 6 4 0 10 40 126 109 139 138 118 128 137

GFSFLT2_con_sbcape_087.txt.gz
CAPE
2441 2077 1652 1175 1493 1568 1757 1807 1839 1889 1727 1548 1494 1222 1043 1017 873 940 871 692 622 861 951 929 931 482 284 306 368 294 667 684
2563 2465 2247 2053 1840 1412 1367 1625 1641 1608 1570 1089 1084 995 912 724 707 746 614 428 624 754 639 726 365 246 175 217 193 164 412 429
2590 2387 2390 2282 1915 1842 1372 1374 1380 1112 1160 730 666 1132 1153 653 514 421 353 298 513 741 527 316 180 119 118 101 98 520 349 69
2781 2280 2266 2522 2034 2502 2024 1845 1781 1758 1448 1507 1244 1235 1140 861 439 251 238 251 401 524 362 193 164 569 455 41 464 316 154 47
2579 2608 2382 2515 2267 2621 2249 2118 2396 2183 2153 1830 1606 1581 1482 972 473 315 370 308 283 389 269 423 525 661 739 612 316 249 79 39
2420 2571 2238 2446 2117 1978 1946 2445 2486 2130 1837 1790 1823 1654 1380 1027 754 375 354 716 473 271 268 469 669 460 455 330 168 191 154 87
2390 2252 2400 2337 2157 2032 1971 2160 2015 1831 1892 1659 1858 1547 1243 897 506 519 569 739 181 46 108 336 578 426 351 270 78 115 51 74
2406 2286 2297 2240 2254 1858 1615 1765 1620 1522 1436 1485 1450 1463 1211 975 755 629 758 668 299 45 116 158 574 423 275 234 78 56 32 31
2296 2453 2301 2284 2158 2142 1490 1654 1184 1076 1094 1425 1202 1052 841 952 805 887 378 402 438 77 102 109 285 229 179 123 51 51 22 10
1888 2292 2222 2302 2153 2007 1800 1157 1128 1127 1271 1151 1026 729 693 698 704 656 596 314 261 52 103 80 103 167 159 64 66 35 21 12
1494 2459 2137 2249 2113 1912 1575 1328 994 1025 1119 920 692 650 521 630 616 509 346 299 237 147 62 67 128 125 121 104 52 19 17 9
1550 2490 2110 2172 2067 1533 1181 815 716 551 495 575 681 490 313 313 135 172 130 261 265 182 86 85 139 142 81 60 61 48 33 19
1706 2330 2069 2358 1703 1067 911 637 610 339 280 320 350 383 268 192 166 157 59 192 140 151 93 64 52 85 126 87 83 56 42 21
1809 2182 2066 2005 1327 1263 946 771 465 588 507 266 156 34 16 7 46 71 27 52 54 67 70 58 84 152 121 41 60 34 59 39
1739 2071 2047 1843 1404 1230 868 571 353 377 221 183 691 502 431 305 181 97 4 63 14 5 24 48 52 94 140 42 24 22 41 41
1619 1921 1875 1758 1466 1121 782 495 292 284 207 263 391 276 223 195 172 101 76 9 1 4 12 45 69 143 110 83 41 25 32 66
1645 1718 1642 1607 1336 1040 772 472 242 164 197 219 118 27 4 23 16 21 7 10 0 3 0 38 73 170 99 162 131 143 85 79
1810 1541 1607 1199 1275 1022 817 486 175 128 237 281 14 12 5 5 1 3 2 1 1 1 0 10 71 123 124 179 156 116 146 125
1716 1416 1504 1038 1149 1057 710 401 167 87 233 109 11 8 7 4 1 0 1 1 1 2 3 44 113 102 157 127 204 202 165 158
1213 897 837 713 1035 1008 594 215 114 62 220 29 11 5 11 4 4 1 1 1 1 1 3 35 75 128 163 155 132 144 193 109

GFSFLT2_con_sbcape_090.txt.gz
CAPE
2252 1663 1520 1389 1460 1631 1752 1831 1684 2006 2163 2180 2094 1785 1502 1283 1051 951 928 503 237 306 701 455 765 634 609 547 134 113 419 450
2835 2369 1866 1632 1511 1315 1567 1695 1702 1697 1736 1413 1570 1401 1202 1067 938 857 755 618 414 605 801 810 484 326 305 228 142 130 448 404
3272 2839 2415 2349 2165 1517 1240 1580 1569 1448 1243 1095 1027 1493 1232 710 649 635 702 585 567 789 712 484 336 255 193 140 114 287 305 209
2918 2703 2771 2550 1789 1864 1695 1709 1657 1739 1717 1268 1625 1553 1297 955 584 414 225 288 322 348 392 266 244 207 110 28 125 47 144 88
2801 2392 2302 2304 1942 2278 1883 1985 1768 1769 1825 1731 1310 1348 1275 958 638 321 102 231 271 302 201 221 336 389 293 212 220 35 20 21
2835 2594 2150 2316 2185 2135 2336 2152 2154 2217 2057 1929 1661 1362 1126 1041 777 439 130 133 171 163 186 218 272 381 318 292 173 77 31 40
2468 2734 2400 2536 2574 2060 2116 2326 2419 2191 2113 1865 1654 1281 1077 951 908 584 296 306 208 197 183 84 124 310 277 170 168 95 71 15
2480 2654 2513 2415 2473 2214 2127 2131 2058 2099 2050 1772 1530 1245 1056 953 762 501 399 374 200 122 84 45 70 151 198 148 175 119 20 4
2579 2429 2506 2236 2324 1953 1560 1711 1577 1572 1588 1680 1347 1175 974 745 618 499 414 349 138 20 35 24 44 137 107 129 152 63 33 4
2577 2402 2392 2362 2088 1955 1439 1345 1559 1473 1266 1325 1300 1122 852 767 528 467 437 308 139 11 32 36 89 118 79 102 22 19 2 1
2522 2430 2417 2386 2176 2291 1753 1423 1295 1191 1196 1167 1027 1006 836 685 523 469 327 285 133 28 25 25 62 32 46 7 22 10 1 0
2521 2493 2387 2365 2209 2164 1791 1317 1046 1090 915 1002 886 894 742 593 446 388 328 119 75 43 44 48 31 57 102 35 1 3 0 3
2598 2485 2271 2188 2098 1717 1430 1079 810 685 596 659 717 722 495 377 225 255 200 118 81 56 34 7 31 69 24 4 27 15 3 0
2456 2551 2170 2076 2140 1472 1239 968 722 487 271 216 373 598 322 192 118 70 53 59 87 38 6 4 40 29 35 30 17 31 41 22
2256 2460 2034 2028 1921 1241 1107 815 728 622 445 330 198 127 185 116 69 68 37 33 75 54 11 1 11 39 43 7 11 11 29 23
1891 2364 1868 2012 1550 1382 1038 753 508 469 324 249 315 353 155 85 84 108 66 44 33 34 18 11 5 18 26 27 16 0 1 14
1540 2173 1928 1762 1341 1514 1109 788 527 350 390 341 356 243 186 125 179 125 74 10 7 38 19 14 2 9 12 21 19 54 0 0
1521 2010 1838 1819 1498 1536 1067 858 509 341 282 304 147 12 0 0 0 12 20 40 6 14 25 22 3 6 10 19 19 45 31 35
1594 1878 1747 1778 1523 1381 1075 916 616 407 353 207 55 0 1 1 1 4 5 7 1 5 16 15 4 3 17 27 65 80 136 88
1725 1714 1555 1528 1462 1251 1099 758 380 290 302 92 26 0 0 0 2 0 0 1 1 0 5 1 0 1 25 34 62 84 103 63

GFSFLT2_con_sbcape_093.txt.gz
CAPE
1021 1329 1562 1490 1531 1608 1803 1903 1564 1431 1925 2078 2271 1949 1582 1560 1531 1186 996 732 703 611 640 611 799 746 564 242 130 318 218 319
1045 1071 1161 1060 1034 1445 1629 1645 1367 1467 1911 2080 2076 1823 1565 1319 1189 1102 929 692 667 696 577 442 667 491 326 65 131 211 186 273
1470 1270 1124 974 879 1129 1483 1623 1609 1537 1431 1600 1485 1250 1224 1100 776 997 835 515 561 637 595 631 584 416 239 92 70 96 174 201
1982 1624 1514 1315 1377 989 965 1398 1198 1107 1215 957 846 934 747 676 671 741 603 444 426 632 616 379 330 287 167 115 12 23 36 8
2127 2043 1843 1637 1402 855 1006 987 1031 1125 1160 820 889 881 728 442 437 556 460 520 397 348 294 219 213 129 140 71 35 9 26 18
2235 1861 1840 1573 1156 1276 1090 1203 970 1063 1047 1018 676 830 672 543 357 141 87 199 180 164 152 99 173 231 193 119 32 5 0 14
2363 1809 1655 1688 1469 1412 1323 1453 1282 1250 1198 1139 777 802 767 749 333 236 106 99 64 91 105 99 74 205 229 156 18 0 0 3
2414 2009 1554 1777 1735 1298 1233 1624 1433 1280 1264 1093 897 753 701 674 477 348 176 83 59 37 86 57 22 160 131 98 20 13 0 0
2275 2173 1926 1953 1861 1260 1194 1155 1250 1213 1285 1125 1007 833 755 593 389 243 220 131 4 8 14 5 13 87 62 63 35 4 0 0
1978 2340 2043 1950 1608 1182 954 854 1007 1052 937 949 900 887 761 608 352 140 279 65 0 0 3 3 1 11 24 66 59 5 0 0
1867 2253 1876 1774 1291 974 805 911 931 795 753 682 799 788 715 516 314 200 202 86 0 0 1 2 6 33 71 80 9 4 0 0
1726 1903 1840 1843 1409 990 826 691 671 598 647 500 724 748 566 355 216 130 123 84 4 0 0 0 4 37 138 92 2 0 1 0
1675 1915 1769 1740 1496 1389 1030 871 671 494 521 721 598 581 383 228 157 91 124 45 0 0 1 8 19 30 16 0 4 0 0 0
1702 1914 1935 1897 1662 1419 1040 571 262 315 441 588 506 428 231 128 170 165 76 2 3 19 16 14 12 46 14 6 0 0 0 0
1851 1940 1982 1732 1317 591 321 185 177 161 214 315 373 516 167 109 110 122 111 91 46 33 15 4 5 18 7 0 1 0 5 2
1834 1831 1786 1443 1000 975 470 495 352 246 194 203 249 283 255 95 99 59 50 25 51 56 6 0 1 2 22 45 0 0 0 1
1914 1691 1679 1445 948 678 367 246 122 151 170 161 188 90 114 102 64 3 40 27 58 114 34 0 0 1 1 20 2 0 2 0
1853 1594 1615 1405 876 639 485 313 165 200 160 114 130 203 138 67 84 49 4 13 37 44 68 10 1 1 5 1 1 0 0 0
1369 1518 1499 1299 1006 816 630 422 198 116 122 115 25 1 0 0 0 0 0 1 11 18 45 40 1 0 0 0 0 0 1 24
929 1297 1367 986 938 777 596 455 184 123 146 46 0 0 0 0 0 0 2 0 3 2 16 24 9 1 0 0 8 4 7 41

GFSFLT2_con_sbcape_099.txt.gz
CAPE
1214 1496 1624 1668 1760 1809 1850 1776 1742 1805 1936 1985 2072 2021 1944 1834 1895 1849 1646 1546 1676 1601 1390 1232 1178 1083 789 360 408 374 227 292
994 1288 1411 1341 1364 1491 1639 1735 1709 1784 1897 1896 1968 1832 1733 1682 1671 1579 1442 1369 1459 1535 1337 1203 1157 941 504 293 294 287 215 213
840 998 1040 939 977 1309 1588 1723 1638 1428 1655 1535 1692 1431 1363 1465 1216 1231 1171 1058 1090 1353 1184 1087 993 612 336 255 253 190 159 164
688 837 797 659 1079 1243 1349 1547 1114 1036 1233 1287 1388 1241 1044 1004 925 971 757 670 813 798 729 585 537 283 250 333 142 153 175 138
806 826 705 727 1023 1079 1221 1411 1104 888 1125 1263 1107 935 811 671 608 658 374 400 312 376 367 277 363 294 263 219 199 183 143 126
1011 828 805 762 831 904 1062 1263 955 1157 818 782 900 739 479 383 523 421 179 115 81 129 152 275 421 332 180 64 136 149 117 135
1350 964 853 839 797 767 792 830 837 867 977 621 645 747 540 270 238 229 223 82 40 92 46 248 391 383 150 54 80 75 55 113
1879 1468 1109 1015 912 679 658 775 816 695 814 717 486 588 389 257 81 63 30 67 47 58 28 51 167 157 90 59 80 44 55 74
2029 1999 1654 1388 1180 761 659 656 695 713 767 475 378 415 288 300 220 93 12 28 7 5 1 2 30 94 63 76 72 59 48 21
2110 2241 2055 1817 1446 1112 875 752 736 658 643 553 282 407 345 298 436 356 24 81 68 45 27 11 13 63 33 42 57 58 43 39
1483 2210 2030 2026 1714 1263 1032 988 920 796 690 616 447 378 349 377 337 252 166 182 187 135 44 50 31 12 12 14 29 40 28 39
33 1892 2065 2047 1881 1305 1066 1058 1082 873 779 660 447 426 334 235 152 137 145 308 232 168 84 18 29 11 22 21 12 28 10 22
0 1408 1931 1788 1674 1475 1263 1229 1235 873 886 617 498 452 267 214 58 106 254 241 129 162 74 9 1 0 5 11 8 10 2 10
0 1005 1777 1801 1718 1666 1454 1269 1127 1036 622 422 471 303 259 186 55 141 141 93 20 40 16 1 2 1 2 0 1 1 1 2
0 816 1709 1879 1783 1539 418 111 120 241 220 309 307 283 282 393 131 140 129 98 24 2 3 0 0 2 0 0 1 0 0 1
0 570 1719 1875 1817 1502 1039 1048 871 730 742 594 145 138 121 192 146 110 112 77 19 2 0 0 0 0 0 1 0 0 0 2
0 108 1505 1778 1847 1565 1136 1051 781 463 418 39 264 120 86 92 116 79 86 32 5 5 2 2 0 0 0 0 1 0 0 0
0 249 1391 1753 1875 1581 1183 999 254 145 172 76 44 114 167 130 94 102 90 37 5 2 1 2 1 0 9 4 6 0 0 0
1 12 1647 1799 1745 1520 961 640 198 178 129 116 21 20 49 130 66 57 20 0 1 0 0 0 1 0 6 0 0 0 0 0
0 1 1535 1569 1438 1083 562 130 195 142 63 45 44 31 37 16 35 8 3 0 1 0 9 1 3 0 2 6 0 0 0 0

GFSFLT2_con_sbcape_102.txt.gz
CAPE
1468 1672 1832 1775 1809 1830 1843 1780 1755 1731 1750 1878 2049 2013 1905 1956 1981 1995 1820 1682 1686 1521 1237 1148 1220 1192 784 581 529 563 376 441
1179 1416 1555 1499 1581 1584 1666 1740 1759 1740 1721 1738 1828 1819 1783 1756 1778 1784 1581 1453 1587 1403 1170 1133 1153 1050 588 392 467 406 271 270
934 1032 1206 1276 1081 1369 1548 1687 1741 1746 1738 1702 1613 1407 1534 1553 1475 1520 1340 1192 1433 1342 1130 1047 1055 809 462 365 400 240 197 231
691 721 837 662 1073 1225 1439 1649 1730 1583 1546 1354 1252 1162 1029 1140 1126 1247 1125 917 1109 1222 1007 791 710 346 337 428 254 222 187 173
546 573 588 797 1136 1218 1139 1127 1128 921 1066 971 1079 965 840 765 743 789 646 630 532 705 384 320 371 217 181 273 269 261 198 201
683 622 603 794 1037 1117 1070 1171 1349 898 1099 1091 1044 1174 760 506 636 440 202 131 106 21 37 41 117 106 97 185 233 200 144 154
1132 708 709 757 841 966 989 1172 1207 1290 1005 995 1236 1432 1018 584 460 473 111 0 0 0 0 52 122 136 104 186 268 171 98 85
1421 1014 757 708 872 877 914 1068 929 814 815 883 1125 1221 935 536 479 506 101 0 0 0 0 8 96 215 181 143 164 35 47 69
1433 1423 988 771 878 717 698 819 761 640 749 843 980 1107 763 515 426 290 157 0 0 0 1 0 29 82 136 86 68 32 59 47
358 1714 1437 1010 957 823 626 613 595 535 721 623 523 788 406 258 416 300 58 17 8 1 2 29 0 11 44 70 47 26 42 59
0 988 1782 1476 1241 1052 746 602 568 513 542 620 491 569 401 454 590 340 41 75 50 16 46 61 1 5 0 63 49 26 41 57
0 2 1632 1870 1743 1406 1003 829 759 630 664 677 506 457 376 411 492 333 179 126 83 81 99 40 16 4 50 38 21 25 32 39
0 0 758 1874 2015 1674 1395 1212 1147 1018 787 609 456 451 355 441 338 251 166 171 156 178 169 118 32 2 2 2 1 6 2 16
0 0 143 1806 1838 1866 1769 1594 1478 1269 974 683 467 489 388 430 282 229 190 268 158 187 137 108 54 3 0 0 0 0 3 23
0 0 2 1543 1758 1916 872 1141 932 1076 1045 883 722 581 438 450 240 231 222 192 119 114 91 58 58 2 0 0 0 1 0 1
0 0 0 873 1662 1761 1461 1434 1306 1043 1043 927 906 623 466 418 189 210 187 141 91 61 57 25 1 9 0 0 0 0 0 1
0 0 0 0 1663 1665 1531 1332 1202 980 1072 848 643 466 391 288 151 91 130 92 82 52 17 2 10 2 1 0 0 0 0 0
0 0 0 0 1617 1694 1454 1318 1143 826 901 778 539 379 198 117 80 35 77 94 40 18 8 1 0 0 0 0 0 0 0 0
0 2 1 0 1246 1696 1551 1260 985 823 788 694 554 370 199 77 74 43 78 88 59 22 0 1 0 2 5 0 0 0 0 0
1 2 2 1 1095 1694 1678 1292 604 509 536 414 325 281 214 125 105 55 54 46 16 0 0 0 1 4 3 1 0 0 0 0

GFSFLT2_con_sbcape_105.txt.gz
CAPE
2244 2310 2097 1761 1875 1843 1701 1632 1669 1779 1898 2009 2168 2214 2207 2104 2201 2254 2169 2127 2057 1888 1370 1227 1281 1228 1034 790 641 859 1733 1753
1931 1877 1949 2201 2404 1521 1556 1613 1621 1684 1752 1866 1979 1948 1975 2022 2057 2146 2011 1999 1747 1623 1220 1144 1200 1090 773 527 561 534 1633 1630
1419 1649 1709 1929 2231 2084 1518 1531 1584 1616 1699 1669 1779 2230 2303 2243 2056 2019 1785 1584 1665 1490 1136 1064 1108 873 504 467 453 1465 1532 1560
1123 1282 1454 1602 1529 2243 2359 2068 2274 2319 2262 2185 2162 2260 2279 2051 1900 1540 1576 1204 1443 1250 1113 965 1041 1680 1303 502 1504 1578 1484 1513
992 839 984 1011 1267 1850 1912 1878 1889 1670 2345 2489 2264 2206 2296 2180 2144 2182 2294 1119 1909 1397 1336 1607 1647 1773 1511 1377 1404 1253 1450 1369
1224 756 665 735 1265 1516 1622 1458 1539 1545 2314 2506 2455 1984 2044 2175 2064 2316 2322 1919 1879 1895 1824 1717 1666 1650 1668 1332 834 1055 1283 1343
1273 1056 666 582 980 1390 1513 1541 1631 1734 2219 2296 2455 1702 1813 1828 2167 2077 1982 1763 1675 1573 1598 1427 1503 1458 1442 1380 963 1029 795 819
2029 1440 1055 1140 1105 1354 1370 1456 1557 1884 2210 2131 2148 2146 1730 1602 1429 1675 1698 1599 1438 1393 1372 1335 1275 1217 1236 1031 1096 846 600 218
130 1642 1473 1467 1453 1567 1659 1500 1667 1364 1426 1442 1332 1415 1475 1352 1272 1399 1230 1171 1221 1088 1007 899 1074 819 740 969 1067 908 659 164
0 204 1798 1817 1744 1704 1774 1651 1563 1268 1079 1028 1132 1311 1453 1136 1050 1064 751 587 882 881 510 620 737 665 553 851 961 697 116 92
0 0 446 1751 1884 1937 1704 1443 1442 1511 1124 1028 1096 1196 1205 935 1057 1044 582 351 520 508 457 563 649 507 579 735 758 439 50 34
0 0 0 1359 1906 1794 1699 1409 1434 1182 994 1018 1024 960 987 1065 1148 1029 661 425 418 317 263 251 353 447 280 372 367 380 172 58
0 0 0 0 1163 1801 1405 1105 1353 1160 1068 1326 1041 955 732 941 1219 967 537 610 435 330 245 157 107 144 249 346 215 323 220 62
0 0 0 0 235 1541 1819 1532 1333 1471 1259 1062 1127 1044 912 1007 1097 832 521 462 447 464 284 239 160 97 80 8 2 6 35 115
0 0 0 0 7 1361 2070 1520 1482 1401 1355 1148 1105 1370 1170 1119 990 749 441 396 424 551 471 322 147 97 59 2 2 3 3 21
0 0 1 0 1 614 1615 1346 1295 1444 1645 1426 1223 1042 1055 1125 909 706 556 420 600 513 488 371 215 104 49 15 0 2 30 16
0 0 1 3 2 9 1476 1623 1725 1931 1976 1986 1609 1159 1157 1012 861 763 813 653 497 390 391 282 185 101 82 25 0 0 0 1
0 0 0 2 2 3 908 1684 1801 1716 1991 1973 1620 1080 941 948 719 656 632 441 560 619 215 223 124 92 105 100 6 0 0 0
0 0 2 2 2 5 309 1516 1548 1756 1802 1953 1448 991 888 689 655 662 615 408 411 449 168 159 97 71 4 12 19 4 1 4
1 4 4 7 5 6 515 1428 1468 1748 1821 1758 1380 878 783 710 585 642 641 318 222 430 444 311 56 17 30 18 19 9 3 0